Hourly Data Report for June 11, 2017

BORDEN AWOS
ONTARIO

44°16'20.000" N
79°54'42.000" W
222.50 m
611B002
71534
YBN

Download Data

Hourly Data (June 2017)
Hourly Data Report for June 11, 2017
TIME
LST
Temp Definition
°C
Dew Point Definition
°C
Rel Hum Definition
%
Precip. Amount Definition
mm

Wind Dir Definition
10's deg

Wind Spd Definition
km/h
Visibility Definition
km
Stn Press Definition
kPa
Hmdx Definition


Wind Chill Definition


Weather Definition


00:00 24.8 11.4 43   19 22 14.5 98.28 27   LegendNANA
01:00 23.8 11.3 45   19 13 14.5 98.39 26   LegendNANA
02:00 24.0 11.0 44   21 13 14.5 98.38 26   LegendNANA
03:00 23.6 11.4 46   19 11 14.5 98.39 26   LegendNANA
04:00 23.1 11.7 49   20 11 14.5 98.38 25   LegendNANA
05:00 22.9 12.2 51   23 17 14.5 98.46 25   LegendNANA
06:00 22.6 13.0 55   23 22 14.5 98.49 25   LegendNANA
07:00 23.0 13.5 55   24 24 14.5 98.51 26   LegendNANA
08:00 24.4 14.4 54   24 17 14.5 98.62 28   LegendNANA
09:00 27.5 15.5 48   24 28 14.5 98.63 32   LegendNANA
10:00 28.0 16.0 48   25 20 14.5 98.64 33   LegendNANA
11:00 28.1 16.5 49   27 13 14.5 98.72 33   LegendNANA
12:00 28.1 16.7 50   24 15 14.5 98.75 33   LegendNANA
13:00 28.9 17.2 49   24 11 14.5 98.74 34   LegendNANA
14:00 30.4 18.3 48   24 15 14.5 98.71 37   LegendNANA
15:00 28.9 18.2 52   26 17 14.5 98.74 35   LegendNANA
16:00 29.1 17.9 51   33 13 14.5 98.71 35   LegendNANA
17:00 27.4 17.0 53   31 9 14.5 98.75 33   LegendNANA
18:00 26.1 17.0 57   36 7 14.5 98.70 31   LegendNANA
19:00 24.8 17.2 63     0 14.5 98.66 30   LegendNANA
20:00 23.6 17.7 70   29 4 14.5 98.71 29   LegendNANA
21:00 21.2 17.2 78   17 9 14.5 98.66 27   LegendNANA
22:00 22.4 17.3 73   20 7 14.5 98.61 28   LegendNANA
23:00 20.0 17.0 83   18 6 14.5 98.63 25   LegendNANA

Notes on Data Quality.

Legend

  • E = Estimated
  • M = Missing
  • NA = Not Available*
  • [empty] = Indicates an unobserved value
Date modified: